Weather History for Crestview, FL

Change the Weather History Date:

Wednesday, December 18, 2013

  Actual Average Record
Temperature  
Mean Temperature 48 °F -  
Max Temperature 64 °F 60 °F 79 °F (2006)
Min Temperature 32 °F 33 °F 21 °F (1981)
Degree Days  
Heating Degree Days 17    
Moisture  
Dew Point 34 °F    
Average Humidity 71    
Maximum Humidity 96    
Minimum Humidity 28    
Precipitation  
Precipitation 0.00 in - - ()
Sea Level Pressure  
Sea Level Pressure 30.32 in    
Wind  
Wind Speed 2 mph (NNE)    
Max Wind Speed 9 mph    
Max Gust Speed -    
Visibility 10 miles    
Events      
Averages and records for this station are not official NWS values.
T = Trace of Precipitation, MM = Missing Value Source: NWS Daily Summary

Daily Weather History Graph

Daily Weather History Graph

Search for Another Location

Airport:

Trip Planner

Search our weather history database for the weather conditions in past years. The results will help you decide how hot, cold, wet, or windy it might be!

Date:

Astronomy

Dec. 18, 2013 Rise Set
Actual Time 6:38 AM CST 4:47 PM CST
Civil Twilight 6:11 AM CST 5:14 PM CST
Nautical Twilight 5:41 AM CST 5:44 PM CST
Astronomical Twilight 5:11 AM CST 6:13 PM CST
Moon 6:13 PM CST (12/18) 7:22 AM CST (12/18)
Length of Visible Light 11h 02m
Length of Day
10h 09m
Full, 98% of the Moon is Illuminated
Dec 18
Full
Dec 25
Last Quarter
Jan 1
New
Jan 7
First Quarter
Jan 15
Full

Hourly Weather History & Observations

Time (CST) Temp. Windchill Dew Point Humidity Pressure Visibility Wind Dir Wind Speed Gust Speed Precip Events Conditions
12:53 AM 34.0 °F - 32.0 °F 92% 30.28 in 9.0 mi Calm Calm - N/A   Clear
1:53 AM 33.1 °F - 30.9 °F 92% 30.29 in 9.0 mi Calm Calm - N/A   Clear
2:53 AM 33.1 °F - 30.9 °F 92% 30.29 in 10.0 mi Calm Calm - N/A   Clear
3:53 AM 34.0 °F 29.8 °F 30.9 °F 89% 30.30 in 10.0 mi NNW 4.6 mph - N/A   Clear
4:53 AM 42.1 °F 40.2 °F 36.0 °F 79% 30.31 in 10.0 mi NNW 3.5 mph - N/A   Clear
5:53 AM 33.1 °F 30.0 °F 30.9 °F 92% 30.33 in 10.0 mi North 3.5 mph - N/A   Clear
6:53 AM 32.0 °F 28.7 °F 28.9 °F 88% 30.35 in 9.0 mi North 3.5 mph - N/A   Clear
7:53 AM 45.0 °F 43.5 °F 39.0 °F 80% 30.37 in 10.0 mi NNE 3.5 mph - N/A   Clear
8:53 AM 50.0 °F - 39.0 °F 66% 30.39 in 10.0 mi ENE 9.2 mph - N/A   Clear
9:53 AM 54.0 °F - 37.0 °F 53% 30.40 in 10.0 mi East 6.9 mph - N/A   Clear
10:53 AM 59.0 °F - 30.9 °F 35% 30.38 in 10.0 mi East 5.8 mph - N/A   Clear
11:53 AM 62.1 °F - 30.9 °F 31% 30.35 in 10.0 mi Variable 5.8 mph - N/A   Clear
12:53 PM 64.0 °F - 32.0 °F 30% 30.32 in 10.0 mi ENE 6.9 mph - N/A   Clear
1:53 PM 64.9 °F - 30.9 °F 28% 30.31 in 10.0 mi Variable 6.9 mph - N/A   Clear
2:53 PM 64.9 °F - 30.9 °F 28% 30.30 in 10.0 mi Variable 4.6 mph - N/A   Clear
3:53 PM 63.0 °F - 32.0 °F 31% 30.30 in 10.0 mi NE 4.6 mph - N/A   Clear
4:53 PM 52.0 °F - 41.0 °F 66% 30.29 in 10.0 mi Calm Calm - N/A   Clear
5:53 PM 44.1 °F - 37.9 °F 79% 30.30 in 10.0 mi Calm Calm - N/A   Clear
6:53 PM 41.0 °F - 37.0 °F 86% 30.31 in 10.0 mi Calm Calm - N/A   Clear
7:53 PM 37.9 °F - 35.1 °F 89% 30.31 in 10.0 mi Calm Calm - N/A   Clear
8:53 PM 37.0 °F - 35.1 °F 93% 30.31 in 10.0 mi Calm Calm - N/A   Clear
9:53 PM 35.1 °F - 33.1 °F 92% 30.32 in 10.0 mi Calm Calm - N/A   Clear
10:53 PM 34.0 °F - 32.0 °F 92% 30.31 in 9.0 mi Calm Calm - N/A   Clear
11:53 PM 32.0 °F - 30.9 °F 96% 30.30 in 9.0 mi Calm Calm - N/A   Clear